Regional Weather Roundup
Issued by NWS

Home | Current Version | Previous Version | Text Only | Print | Product List | Glossary Off
Versions: 1 2 3 4 5 6 7 8 9 10 11 12 13 14 15 16 17 18 19 20 21 22 23 24 25 26 27 28 29 30 31 32 33 34 35 36 37 38 39 40 41 42 43 44 45 46 47 48 49 50

000
ASUS43 KBIS 301110
RWRND

NORTH DAKOTA REGIONAL WEATHER ROUNDUP
NATIONAL WEATHER SERVICE BISMARCK ND
600 AM CDT TUE JUN 30 2015

NOTE: "FAIR" INDICATES FEW OR NO CLOUDS BELOW 12,000 FEET WITH NO
SIGNIFICANT WEATHER AND/OR OBSTRUCTIONS TO VISIBILITY.


NDZ001>003-009>011-017-301200-
NORTHWEST NORTH DAKOTA

CITY           SKY/WX    TMP DP  RH WIND       PRES   REMARKS
WILLISTON      CLOUDY    68  59  73 CALM      29.93F HAZE
MINOT          CLOUDY    64  61  90 E8        29.93S
MINOT AFB      CLOUDY    64  64 100 SE6       29.93S
$$

NDZ018>021-031>035-040>046-301200-
SOUTHWEST NORTH DAKOTA

CITY           SKY/WX    TMP DP  RH WIND       PRES   REMARKS
BISMARCK       CLOUDY    67  64  90 E8        29.93F
DICKINSON      CLOUDY    67  60  78 NE8       29.94S
GARRISON         N/A     68  64  87 SW5       29.93F
HETTINGER ARPT CLOUDY    66  60  81 E8        29.96R
$$

NDZ004>008-012>016-024-026-027-054-301200-
NORTHEAST NORTH DAKOTA

CITY           SKY/WX    TMP DP  RH WIND       PRES   REMARKS
GRAND FORKS    CLOUDY    56  54  93 NE5       29.94S FOG
GRND FRKS AFB  CLEAR     55  54  97 N2        29.95S FOG
DEVILS LAKE    PTCLDY    61  54  77 E3        29.96R
$$

NDZ022-023-025-028>030-036>039-047>053-301200-
SOUTHEAST NORTH DAKOTA

CITY           SKY/WX    TMP DP  RH WIND       PRES   REMARKS
FARGO          CLEAR     57  55  93 CALM      29.94R FOG
JAMESTOWN      PTCLDY    61  58  90 CALM      29.97R FOG
$$



USA.gov is the U.S. government's official web portal to all federal, state and local government web resources and services.